Voltar ao catálogo

CZ-6A DEB

AtivoPO
NORAD 60706·DEBRIS·🇨🇳 China

Lançado Aug 6, 2024 de Taiyuan Satellite Launch Center

Loading…

Próximas Passagens (próximas 24 horas)

TLE

AtualizadoSource: Space-Track

Época: Sep 14, 2026, 11:15 UTC

1 60706U 24140DK  26257.46933306  .00000377  00000-0  81067-4 0  9999
2 60706  89.0117 261.3428 0113427 326.6276  32.7816 14.52606173110748

Acompanhe CZ-6A DEB em tempo real com AllMySat

Download on the App Store